Station History


Daily Summary for January 27, 2012 Units:  English    Metric   Both
« Previous Day
Next Day »
Daily Weekly Monthly Yearly Custom
  High: Low: Average:
Temperature: 60.3 °F 52.6 °F 55.2 °F
Dew Point: 53.9 °F 50.6 °F 51.8 °F
Humidity: 94% 78% 88%
Wind Speed: 4.6mph 0.0mph 1.9mph
Wind Gust: 4.6mph - -
Wind- - WSW
Pressure: 30.28 in 30.16 in -
Precipitation: 0.00 in    
Historical Graphs
 
 
Tabular Data for January 27, 2012
Time Temperature Dew Point Pressure Wind Wind Speed Wind Gust Humidity Rainfall Rate (Hourly)
00:01 54.4 °F 51.2 °F 30.20 in Calm     89% 0.00 in
00:06 54.3 °F 50.8 °F 30.20 in Calm     88% 0.00 in
00:11 54.3 °F 51.1 °F 30.20 in Calm     89% 0.00 in
00:16 54.3 °F 51.1 °F 30.20 in Calm     89% 0.00 in
00:21 54.2 °F 51.0 °F 30.19 in Calm     89% 0.00 in
00:26 54.2 °F 51.0 °F 30.19 in Calm     89% 0.00 in
00:31 54.2 °F 51.3 °F 30.19 in Calm     90% 0.00 in
00:36 54.4 °F 51.5 °F 30.19 in ENE 1.1 mph 1.1 mph 90% 0.00 in
00:41 54.5 °F 51.3 °F 30.19 in Calm     89% 0.00 in
00:46 54.5 °F 51.3 °F 30.19 in Calm     89% 0.00 in
00:51 54.4 °F 51.2 °F 30.19 in Calm     89% 0.00 in
00:56 54.5 °F 51.3 °F 30.18 in ENE 1.1 mph   89% 0.00 in
01:01 54.6 °F 51.1 °F 30.19 in Calm     88% 0.00 in
01:06 54.5 °F 51.0 °F 30.18 in Calm     88% 0.00 in
01:11 54.5 °F 51.0 °F 30.18 in Calm     88% 0.00 in
01:16 54.3 °F 51.1 °F 30.18 in Calm     89% 0.00 in
01:21 54.3 °F 51.1 °F 30.18 in Calm     89% 0.00 in
01:26 54.2 °F 51.0 °F 30.18 in Calm     89% 0.00 in
01:31 54.1 °F 51.2 °F 30.18 in Calm     90% 0.00 in
01:36 54.2 °F 51.3 °F 30.18 in Calm     90% 0.00 in
01:41 54.1 °F 51.2 °F 30.18 in Calm     90% 0.00 in
01:47 54.1 °F 51.2 °F 30.18 in Calm     90% 0.00 in
01:52 54.1 °F 51.2 °F 30.18 in Calm     90% 0.00 in
01:57 54.1 °F 51.2 °F 30.18 in Calm     90% 0.00 in
02:02 54.0 °F 51.1 °F 30.18 in Calm     90% 0.00 in
02:07 54.0 °F 51.1 °F 30.18 in ENE 1.1 mph   90% 0.00 in
02:12 54.0 °F 51.1 °F 30.18 in Calm     90% 0.00 in
02:17 54.0 °F 51.1 °F 30.17 in Calm     90% 0.00 in
02:22 53.9 °F 51.0 °F 30.17 in Calm     90% 0.00 in
02:27 53.8 °F 51.2 °F 30.17 in Calm     91% 0.00 in
02:32 53.8 °F 51.2 °F 30.17 in Calm     91% 0.00 in
02:37 53.7 °F 51.1 °F 30.17 in Calm     91% 0.00 in
02:42 53.7 °F 51.1 °F 30.17 in Calm     91% 0.00 in
02:47 53.6 °F 51.0 °F 30.17 in Calm     91% 0.00 in
02:52 53.6 °F 51.0 °F 30.17 in Calm     91% 0.00 in
02:57 53.5 °F 50.9 °F 30.17 in Calm     91% 0.00 in
03:02 53.5 °F 50.9 °F 30.17 in Calm     91% 0.00 in
03:07 53.5 °F 50.9 °F 30.17 in Calm     91% 0.00 in
03:12 53.5 °F 50.9 °F 30.17 in Calm     91% 0.00 in
03:17 53.5 °F 50.9 °F 30.17 in Calm     91% 0.00 in
03:22 53.4 °F 50.8 °F 30.17 in Calm     91% 0.00 in
03:27 53.4 °F 51.1 °F 30.17 in Calm     92% 0.00 in
03:32 53.4 °F 51.1 °F 30.17 in Calm     92% 0.00 in
03:37 53.3 °F 51.0 °F 30.17 in Calm     92% 0.00 in
03:42 53.3 °F 51.0 °F 30.17 in Calm     92% 0.00 in
03:47 53.3 °F 50.7 °F 30.17 in Calm     91% 0.00 in
03:52 53.3 °F 50.7 °F 30.17 in Calm     91% 0.00 in
03:57 53.2 °F 50.6 °F 30.16 in Calm     91% 0.00 in
04:02 53.2 °F 50.6 °F 30.16 in Calm     91% 0.00 in
04:07 53.2 °F 50.6 °F 30.16 in Calm     91% 0.00 in
04:12 53.2 °F 50.6 °F 30.16 in Calm     91% 0.00 in
04:17 53.2 °F 50.6 °F 30.16 in Calm     91% 0.00 in
04:22 53.2 °F 50.6 °F 30.16 in Calm     91% 0.00 in
04:27 53.2 °F 50.6 °F 30.16 in Calm     91% 0.00 in
04:32 53.2 °F 50.6 °F 30.16 in Calm     91% 0.00 in
04:37 53.2 °F 50.6 °F 30.16 in Calm     91% 0.00 in
04:42 53.2 °F 50.9 °F 30.16 in Calm     92% 0.00 in
04:47 53.1 °F 50.8 °F 30.16 in Calm     92% 0.00 in
04:52 53.1 °F 50.8 °F 30.16 in Calm     92% 0.00 in
04:57 53.1 °F 50.8 °F 30.16 in Calm     92% 0.00 in
05:02 53.0 °F 50.7 °F 30.17 in Calm     92% 0.00 in
05:07 53.0 °F 50.7 °F 30.17 in Calm     92% 0.00 in
05:12 53.0 °F 50.7 °F 30.17 in Calm     92% 0.00 in
05:17 53.0 °F 50.7 °F 30.17 in Calm     92% 0.00 in
05:22 53.0 °F 50.7 °F 30.17 in Calm     92% 0.00 in
05:27 53.1 °F 50.8 °F 30.17 in Calm     92% 0.00 in
05:32 53.1 °F 50.8 °F 30.18 in Calm     92% 0.00 in
05:37 53.1 °F 50.8 °F 30.18 in Calm     92% 0.00 in
05:42 53.0 °F 50.7 °F 30.18 in Calm     92% 0.00 in
05:47 53.0 °F 50.7 °F 30.18 in Calm     92% 0.00 in
05:52 53.0 °F 50.7 °F 30.18 in Calm     92% 0.00 in
05:57 53.0 °F 50.7 °F 30.18 in Calm     92% 0.00 in
06:02 53.0 °F 50.7 °F 30.18 in Calm     92% 0.00 in
06:07 53.0 °F 50.7 °F 30.18 in Calm     92% 0.00 in
06:12 52.9 °F 50.6 °F 30.18 in Calm     92% 0.00 in
06:17 52.9 °F 50.6 °F 30.18 in Calm     92% 0.00 in
06:22 52.9 °F 50.6 °F 30.18 in Calm     92% 0.00 in
06:27 52.8 °F 50.8 °F 30.18 in Calm     93% 0.00 in
06:32 52.8 °F 50.8 °F 30.18 in Calm     93% 0.00 in
06:38 52.7 °F 50.7 °F 30.18 in Calm     93% 0.00 in
06:43 52.6 °F 50.6 °F 30.18 in Calm     93% 0.00 in
06:48 52.6 °F 50.6 °F 30.18 in Calm     93% 0.00 in
06:53 52.7 °F 50.7 °F 30.18 in Calm     93% 0.00 in
06:58 52.7 °F 50.7 °F 30.18 in Calm     93% 0.00 in
07:03 52.7 °F 50.7 °F 30.18 in Calm     93% 0.00 in
07:08 52.7 °F 51.0 °F 30.19 in Calm     94% 0.00 in
07:13 52.7 °F 51.0 °F 30.19 in Calm     94% 0.00 in
07:18 52.7 °F 51.0 °F 30.19 in Calm     94% 0.00 in
07:23 52.7 °F 51.0 °F 30.19 in Calm     94% 0.00 in
07:28 52.7 °F 51.0 °F 30.19 in Calm     94% 0.00 in
07:33 52.7 °F 51.0 °F 30.19 in Calm     94% 0.00 in
07:38 52.7 °F 51.0 °F 30.19 in WNW 1.1 mph 1.1 mph 94% 0.00 in
07:43 52.7 °F 51.0 °F 30.20 in WNW 1.1 mph 1.1 mph 94% 0.00 in
07:48 52.7 °F 51.0 °F 30.20 in WNW 1.1 mph   94% 0.00 in
07:53 52.8 °F 51.1 °F 30.20 in Calm     94% 0.00 in
07:58 52.7 °F 51.0 °F 30.20 in Calm     94% 0.00 in
08:03 52.8 °F 50.8 °F 30.21 in Calm     93% 0.00 in
08:08 52.8 °F 51.1 °F 30.21 in Calm     94% 0.00 in
08:13 52.8 °F 51.1 °F 30.21 in Calm     94% 0.00 in
08:18 52.8 °F 50.8 °F 30.21 in Calm     93% 0.00 in
08:23 52.8 °F 51.1 °F 30.21 in Calm     94% 0.00 in
08:28 52.8 °F 51.1 °F 30.21 in Calm     94% 0.00 in
08:33 52.9 °F 51.2 °F 30.21 in Calm     94% 0.00 in
08:38 52.9 °F 51.2 °F 30.22 in WNW 1.1 mph 1.1 mph 94% 0.00 in
08:43 53.0 °F 51.0 °F 30.22 in Calm     93% 0.00 in
08:48 53.0 °F 51.0 °F 30.22 in Calm     93% 0.00 in
08:53 53.0 °F 51.0 °F 30.23 in Calm     93% 0.00 in
08:58 53.0 °F 51.0 °F 30.23 in Calm     93% 0.00 in
09:03 53.1 °F 51.1 °F 30.23 in Calm     93% 0.00 in
09:08 53.1 °F 51.1 °F 30.23 in WNW 1.1 mph   93% 0.00 in
09:13 53.1 °F 51.1 °F 30.24 in NNW 1.1 mph 1.1 mph 93% 0.00 in
09:18 53.2 °F 51.5 °F 30.24 in Calm     94% 0.00 in
09:23 53.3 °F 51.6 °F 30.24 in NNW 1.1 mph   94% 0.00 in
09:28 53.4 °F 51.7 °F 30.24 in North 1.1 mph 1.1 mph 94% 0.00 in
09:33 53.5 °F 51.8 °F 30.24 in Calm     94% 0.00 in
09:38 53.6 °F 51.9 °F 30.24 in Calm     94% 0.00 in
09:43 53.7 °F 52.0 °F 30.25 in Calm     94% 0.00 in
09:48 53.9 °F 52.2 °F 30.25 in Calm     94% 0.00 in
09:53 54.2 °F 52.5 °F 30.25 in WNW 1.1 mph   94% 0.00 in
09:58 54.3 °F 52.6 °F 30.25 in Calm     94% 0.00 in
10:03 54.5 °F 52.8 °F 30.25 in Calm     94% 0.00 in
10:08 54.6 °F 52.6 °F 30.25 in Calm     93% 0.00 in
10:13 54.8 °F 52.8 °F 30.25 in WNW 1.1 mph   93% 0.00 in
10:18 54.9 °F 52.9 °F 30.25 in WNW 1.1 mph   93% 0.00 in
10:23 55.1 °F 52.8 °F 30.25 in Calm     92% 0.00 in
10:28 55.1 °F 52.8 °F 30.25 in NNW 1.1 mph 1.1 mph 92% 0.00 in
10:33 55.3 °F 53.0 °F 30.25 in NW 1.1 mph   92% 0.00 in
10:38 55.5 °F 52.9 °F 30.24 in NNW 1.1 mph 1.1 mph 91% 0.00 in
10:43 55.6 °F 52.7 °F 30.24 in NNW 1.1 mph 1.1 mph 90% 0.00 in
10:48 55.7 °F 52.5 °F 30.24 in Calm     89% 0.00 in
10:53 56.0 °F 52.8 °F 30.23 in NNW 1.1 mph   89% 0.00 in
10:58 56.3 °F 53.1 °F 30.23 in Calm     89% 0.00 in
11:03 56.7 °F 53.2 °F 30.23 in Calm     88% 0.00 in
11:08 57.0 °F 53.2 °F 30.23 in Calm     87% 0.00 in
11:13 57.4 °F 53.2 °F 30.22 in NNW 1.1 mph   86% 0.00 in
11:18 57.6 °F 53.4 °F 30.22 in Calm     86% 0.00 in
11:23 57.8 °F 53.6 °F 30.22 in Calm     86% 0.00 in
11:28 58.3 °F 53.5 °F 30.22 in WNW 2.3 mph 2.3 mph 84% 0.00 in
11:33 58.6 °F 53.5 °F 30.21 in WNW 2.3 mph 2.3 mph 83% 0.00 in
11:38 58.8 °F 53.3 °F 30.21 in WSW 1.1 mph 1.1 mph 82% 0.00 in
11:43 58.9 °F 53.1 °F 30.21 in SSW 2.3 mph 2.3 mph 81% 0.00 in
11:48 59.3 °F 53.5 °F 30.21 in WNW 2.0 mph 2.0 mph 81% 0.00 in
11:53 59.2 °F 53.0 °F 30.21 in SSE 3.5 mph 3.5 mph 80% 0.00 in
11:58 59.4 °F 53.6 °F 30.21 in NNW 1.1 mph 1.1 mph 81% 0.00 in
12:03 59.8 °F 53.6 °F 30.21 in NW 4.6 mph 4.6 mph 80% 0.00 in
12:08 59.8 °F 53.6 °F 30.20 in SSW 1.1 mph 1.1 mph 80% 0.00 in
12:13 60.0 °F 53.1 °F 30.20 in NW 3.5 mph 3.5 mph 78% 0.00 in
12:18 60.2 °F 53.7 °F 30.20 in WNW 1.1 mph 1.1 mph 79% 0.00 in
12:23 60.3 °F 53.8 °F 30.20 in WNW 3.5 mph 3.5 mph 79% 0.00 in
12:28 60.1 °F 53.9 °F 30.20 in West 1.1 mph 1.1 mph 80% 0.00 in
12:33 60.1 °F 53.6 °F 30.19 in NW 1.1 mph 1.1 mph 79% 0.00 in
12:38 60.0 °F 53.5 °F 30.19 in ENE 1.1 mph 1.1 mph 79% 0.00 in
12:44 59.7 °F 53.2 °F 30.19 in WSW 3.5 mph 3.5 mph 79% 0.00 in
12:49 59.2 °F 53.4 °F 30.19 in WNW 2.0 mph 2.0 mph 81% 0.00 in
12:54 59.3 °F 53.5 °F 30.19 in Calm   0.1 mph 81% 0.00 in
12:59 59.3 °F 53.5 °F 30.19 in NE 2.3 mph 2.3 mph 81% 0.00 in
13:04 59.3 °F 53.5 °F 30.19 in WNW 3.5 mph 3.5 mph 81% 0.00 in
13:09 59.2 °F 53.0 °F 30.19 in SSE 1.1 mph 1.1 mph 80% 0.00 in
13:14 59.2 °F 53.4 °F 30.19 in West 1.1 mph 1.1 mph 81% 0.00 in
13:19 59.1 °F 53.3 °F 30.19 in NW 2.3 mph 2.3 mph 81% 0.00 in
13:24 59.2 °F 53.4 °F 30.19 in NE 3.5 mph 3.5 mph 81% 0.00 in
13:29 59.3 °F 53.1 °F 30.19 in WNW 2.3 mph 2.3 mph 80% 0.00 in
13:34 59.2 °F 53.4 °F 30.19 in Calm     81% 0.00 in
13:39 59.2 °F 53.4 °F 30.19 in West 3.5 mph 3.5 mph 81% 0.00 in
13:44 59.1 °F 53.3 °F 30.19 in WNW 1.1 mph 1.1 mph 81% 0.00 in
13:49 59.0 °F 53.5 °F 30.19 in West 2.3 mph 2.3 mph 82% 0.00 in
13:54 58.9 °F 53.1 °F 30.19 in Calm     81% 0.00 in
13:59 58.8 °F 53.3 °F 30.19 in North 2.3 mph 2.3 mph 82% 0.00 in
14:04 58.8 °F 53.3 °F 30.19 in Calm     82% 0.00 in
14:09 58.6 °F 53.5 °F 30.18 in SW 2.3 mph 2.3 mph 83% 0.00 in
14:14 58.6 °F 53.5 °F 30.19 in West 2.3 mph 2.3 mph 83% 0.00 in
14:19 58.7 °F 53.2 °F 30.18 in WNW 3.5 mph 3.5 mph 82% 0.00 in
14:24 58.8 °F 53.3 °F 30.18 in WNW 3.5 mph 3.5 mph 82% 0.00 in
14:29 59.0 °F 53.5 °F 30.18 in NW 4.6 mph 4.6 mph 82% 0.00 in
14:34 59.0 °F 53.2 °F 30.19 in NNE 3.5 mph 3.5 mph 81% 0.00 in
14:39 59.1 °F 53.3 °F 30.18 in North 4.6 mph 4.6 mph 81% 0.00 in
14:44 59.3 °F 53.5 °F 30.19 in NW 3.5 mph 3.5 mph 81% 0.00 in
14:49 59.3 °F 53.5 °F 30.19 in North 1.1 mph 1.1 mph 81% 0.00 in
14:54 59.3 °F 53.1 °F 30.19 in North 2.0 mph 2.0 mph 80% 0.00 in
14:59 59.2 °F 52.7 °F 30.19 in NNW 4.0 mph 4.0 mph 79% 0.00 in
15:04 59.1 °F 52.9 °F 30.19 in North 2.3 mph 2.3 mph 80% 0.00 in
15:09 59.2 °F 52.7 °F 30.18 in NNE 3.5 mph 3.5 mph 79% 0.00 in
15:14 59.2 °F 53.0 °F 30.18 in North 3.0 mph 3.0 mph 80% 0.00 in
15:19 59.3 °F 52.8 °F 30.19 in NNE 3.5 mph 3.5 mph 79% 0.00 in
15:24 59.4 °F 52.9 °F 30.19 in NW 1.1 mph 1.1 mph 79% 0.00 in
15:29 59.6 °F 53.4 °F 30.19 in West 1.1 mph 1.1 mph 80% 0.00 in
15:34 59.6 °F 53.1 °F 30.19 in North 2.3 mph 2.3 mph 79% 0.00 in
15:39 59.4 °F 52.9 °F 30.19 in NNE 1.1 mph 1.1 mph 79% 0.00 in
15:44 59.3 °F 52.8 °F 30.19 in North 2.3 mph 2.3 mph 79% 0.00 in
15:49 59.3 °F 52.8 °F 30.19 in NNW 2.3 mph 2.3 mph 79% 0.00 in
15:54 59.2 °F 52.7 °F 30.19 in NNW 2.3 mph 2.3 mph 79% 0.00 in
15:59 59.2 °F 52.7 °F 30.19 in NNW 2.3 mph 2.3 mph 79% 0.00 in
16:04 59.2 °F 52.7 °F 30.19 in NNW 1.1 mph 1.1 mph 79% 0.00 in
16:09 59.1 °F 52.6 °F 30.19 in NNW 3.5 mph 3.5 mph 79% 0.00 in
16:14 58.8 °F 52.3 °F 30.19 in North 2.3 mph 2.3 mph 79% 0.00 in
16:19 58.5 °F 52.0 °F 30.19 in NNW 1.1 mph   79% 0.00 in
16:24 58.2 °F 52.1 °F 30.19 in North 1.1 mph 1.1 mph 80% 0.00 in
16:29 58.1 °F 52.3 °F 30.19 in Calm   0.1 mph 81% 0.00 in
16:34 58.0 °F 52.2 °F 30.19 in Calm     81% 0.00 in
16:39 57.9 °F 52.1 °F 30.18 in Calm     81% 0.00 in
16:44 57.9 °F 52.4 °F 30.19 in Calm     82% 0.00 in
16:49 57.7 °F 52.2 °F 30.19 in Calm     82% 0.00 in
16:54 57.6 °F 52.1 °F 30.18 in Calm     82% 0.00 in
16:59 57.5 °F 52.4 °F 30.19 in North 1.0 mph 1.0 mph 83% 0.00 in
17:04 57.3 °F 52.2 °F 30.19 in North 1.1 mph 1.1 mph 83% 0.00 in
17:09 57.1 °F 52.0 °F 30.19 in Calm     83% 0.00 in
17:14 56.8 °F 51.7 °F 30.19 in Calm     83% 0.00 in
17:19 56.5 °F 51.7 °F 30.19 in Calm     84% 0.00 in
17:24 56.2 °F 51.4 °F 30.19 in Calm     84% 0.00 in
17:29 55.8 °F 51.4 °F 30.19 in Calm     85% 0.00 in
17:34 55.4 °F 51.3 °F 30.19 in Calm     86% 0.00 in
17:39 55.2 °F 51.4 °F 30.19 in Calm     87% 0.00 in
17:44 54.9 °F 51.1 °F 30.19 in Calm     87% 0.00 in
17:49 54.7 °F 51.2 °F 30.19 in Calm     88% 0.00 in
17:54 54.5 °F 51.0 °F 30.21 in Calm     88% 0.00 in
17:59 54.6 °F 51.4 °F 30.21 in NW 1.1 mph   89% 0.00 in
18:04 54.8 °F 51.6 °F 30.22 in Calm   0.4 mph 89% 0.00 in
18:09 55.0 °F 51.8 °F 30.22 in North 1.1 mph 1.1 mph 89% 0.00 in
18:14 55.1 °F 51.6 °F 30.22 in North 1.1 mph 1.1 mph 88% 0.00 in
18:19 55.1 °F 51.6 °F 30.22 in Calm     88% 0.00 in
18:24 55.1 °F 51.6 °F 30.22 in Calm   0.2 mph 88% 0.00 in
18:29 55.1 °F 51.9 °F 30.22 in NNW 1.1 mph   89% 0.00 in
18:34 55.1 °F 51.9 °F 30.22 in Calm     89% 0.00 in
18:39 55.1 °F 51.9 °F 30.22 in Calm     89% 0.00 in
18:44 55.1 °F 51.9 °F 30.22 in Calm     89% 0.00 in
18:49 55.1 °F 51.9 °F 30.22 in Calm     89% 0.00 in
18:54 55.0 °F 51.8 °F 30.22 in Calm     89% 0.00 in
18:59 55.0 °F 51.8 °F 30.22 in Calm     89% 0.00 in
19:04 55.0 °F 52.1 °F 30.22 in Calm     90% 0.00 in
19:09 54.9 °F 52.0 °F 30.22 in Calm     90% 0.00 in
19:14 55.0 °F 52.1 °F 30.22 in Calm     90% 0.00 in
19:19 54.9 °F 52.0 °F 30.22 in Calm     90% 0.00 in
19:24 54.8 °F 51.9 °F 30.22 in Calm     90% 0.00 in
19:30 54.7 °F 51.8 °F 30.22 in Calm     90% 0.00 in
19:35 54.6 °F 51.7 °F 30.22 in Calm     90% 0.00 in
19:37 54.6 °F 51.7 °F 30.21 in Calm     90% 0.00 in
19:42 54.5 °F 51.6 °F 30.22 in Calm     90% 0.00 in
19:47 54.4 °F 51.8 °F 30.22 in Calm     91% 0.00 in
19:52 54.3 °F 51.7 °F 30.22 in WNW 1.1 mph 1.1 mph 91% 0.00 in
19:57 54.3 °F 51.7 °F 30.22 in Calm     91% 0.00 in
20:02 54.3 °F 51.7 °F 30.22 in Calm     91% 0.00 in
20:07 54.2 °F 51.6 °F 30.22 in Calm     91% 0.00 in
20:12 54.1 °F 51.5 °F 30.22 in Calm     91% 0.00 in
20:17 54.0 °F 51.4 °F 30.23 in Calm     91% 0.00 in
20:22 54.0 °F 51.7 °F 30.24 in NW 2.3 mph 2.3 mph 92% 0.00 in
20:27 53.9 °F 51.6 °F 30.24 in North 1.1 mph 1.1 mph 92% 0.00 in
20:32 53.9 °F 51.6 °F 30.25 in NW 1.1 mph 1.1 mph 92% 0.00 in
20:37 53.9 °F 51.6 °F 30.25 in North 1.1 mph 1.1 mph 92% 0.00 in
20:42 53.9 °F 51.6 °F 30.25 in North 1.1 mph 1.1 mph 92% 0.00 in
20:47 53.9 °F 51.6 °F 30.25 in North 1.1 mph 1.1 mph 92% 0.00 in
20:52 54.0 °F 51.7 °F 30.26 in NW 2.3 mph 2.3 mph 92% 0.00 in
20:57 54.0 °F 51.7 °F 30.26 in North 2.3 mph 2.3 mph 92% 0.00 in
21:00 54.0 °F 51.7 °F 30.26 in NNW 2.3 mph 2.3 mph 92% 0.00 in
21:01 54.0 °F 51.7 °F 30.26 in NNW 1.1 mph 1.1 mph 92% 0.00 in
21:06 54.0 °F 51.4 °F 30.26 in NNW 2.3 mph 2.3 mph 91% 0.00 in
21:11 54.0 °F 51.4 °F 30.26 in North 1.1 mph 1.1 mph 91% 0.00 in
21:16 54.0 °F 51.4 °F 30.26 in NNE 1.1 mph   91% 0.00 in
21:21 54.0 °F 51.4 °F 30.27 in NNE 1.1 mph 1.1 mph 91% 0.00 in
21:26 53.9 °F 51.3 °F 30.27 in WNW 2.3 mph 2.3 mph 91% 0.00 in
21:31 54.0 °F 51.4 °F 30.27 in NNW 2.3 mph 2.3 mph 91% 0.00 in
21:36 54.1 °F 51.2 °F 30.27 in NNW 2.3 mph 2.3 mph 90% 0.00 in
21:41 54.2 °F 51.3 °F 30.27 in NNW 1.1 mph   90% 0.00 in
21:46 54.2 °F 51.3 °F 30.27 in Calm   0.3 mph 90% 0.00 in
21:49 54.2 °F 51.3 °F 30.27 in NNW 1.1 mph 1.1 mph 90% 0.00 in
21:54 54.2 °F 51.3 °F 30.28 in North 3.5 mph 3.5 mph 90% 0.00 in
21:59 54.2 °F 51.3 °F 30.27 in NW 2.3 mph 2.3 mph 90% 0.00 in
22:04 54.3 °F 51.4 °F 30.27 in NNW 2.3 mph 2.3 mph 90% 0.00 in
22:09 54.4 °F 51.2 °F 30.27 in North 1.1 mph 1.1 mph 89% 0.00 in
22:14 54.4 °F 51.2 °F 30.27 in NNW 1.1 mph 1.1 mph 89% 0.00 in
22:19 54.4 °F 51.2 °F 30.27 in NW 1.1 mph   89% 0.00 in
22:24 54.5 °F 51.3 °F 30.27 in WNW 1.1 mph 1.1 mph 89% 0.00 in
22:29 54.4 °F 51.5 °F 30.27 in Calm   0.2 mph 90% 0.00 in
22:34 54.4 °F 51.5 °F 30.27 in NW 2.3 mph 2.3 mph 90% 0.00 in
22:39 54.3 °F 51.4 °F 30.27 in NNW 1.1 mph   90% 0.00 in
22:44 54.3 °F 51.4 °F 30.27 in Calm     90% 0.00 in
22:49 54.3 °F 51.4 °F 30.27 in Calm     90% 0.00 in
22:54 54.3 °F 51.4 °F 30.27 in Calm     90% 0.00 in
22:59 54.2 °F 51.3 °F 30.27 in Calm     90% 0.00 in
23:04 54.1 °F 51.2 °F 30.28 in Calm     90% 0.00 in
23:09 54.1 °F 51.2 °F 30.28 in Calm     90% 0.00 in
23:14 54.1 °F 51.5 °F 30.28 in Calm     91% 0.00 in
23:19 54.1 °F 51.5 °F 30.28 in Calm     91% 0.00 in
23:24 54.0 °F 51.4 °F 30.28 in Calm     91% 0.00 in
23:29 53.9 °F 51.3 °F 30.28 in Calm     91% 0.00 in
23:34 53.8 °F 51.2 °F 30.28 in Calm     91% 0.00 in
23:39 53.7 °F 51.1 °F 30.28 in Calm     91% 0.00 in
23:44 53.6 °F 51.0 °F 30.28 in Calm     91% 0.00 in
23:49 53.5 °F 51.2 °F 30.28 in Calm     92% 0.00 in
23:54 53.4 °F 51.1 °F 30.28 in Calm     92% 0.00 in
23:59 53.3 °F 51.0 °F 30.28 in Calm     92% 0.00 in
Compliments of Weather Underground